{"data":{"norad_id":50501,"intl_designator":"2021-132AJ","name":"ONEWEB-0430","alt_names":[],"object_type":"PAYLOAD","status":"ACTIVE","operator":null,"country":"UK","launch_date":"2021-12-27","launch_site_code":"TYMSC","launch_vehicle":null,"mission":null,"orbit_class":"UNKNOWN","rcs_meters":null,"size_class":null,"mass_kg":null,"dimensions":null,"purposes":["comms"],"wikipedia_slug":null,"has_3d_model":false,"image_url":null,"decayed_at":null,"tle_current":{"epoch":"2026-09-19T22:41:24.673344Z","epoch_age_seconds":75057,"freshness":"FRESH","line1":"1 50501U 21132AJ  26262.94542446  .00000109  00000+0  24448-3 0  9990","line2":"2 50501  87.9161 316.6276 0001766  90.1326 270.0009 13.18687299234110","mean_motion":13.18687299,"eccentricity":0.0001766,"inclination_deg":87.9161,"raan_deg":316.6276,"arg_perigee_deg":90.1326,"mean_anomaly_deg":270.0009,"bstar":0.00024448,"rev_number":23411,"period_min":109.19950477206,"perigee_km":1188.401670183,"apogee_km":1191.0746436884,"semimajor_km":7567.8751569357,"source":"CELESTRAK","updated_at":"2026-09-20T09:00:44.706597Z"}}}